Location: Newark
(58.9986°N, 38.5006°E)
Time: 16:14:25
(UTC+00:00)

Explorer 7 - Visible Passes

Search period start: 19 April 2021 00:00
Search period end: 29 April 2021 00:00
Orbit: 484 x 677 km, 50.3° (Epoch: 19 April)

Date Brightness Start Highest point End Pass type
(mag) Time Alt. Az. Time Alt. Az. Time Alt. Az.
19 Apr 8.2 18:58:22 10° SSW 19:01:12 21° SSE 19:01:12 21° SSE visible
19 Apr 9.4 20:37:33 10° WSW 20:37:33 10° WSW 20:37:33 10° WSW visible
20 Apr 8.0 19:02:23 10° SW 19:05:44 23° SSE 19:06:13 23° SSE visible
20 Apr 9.1 20:41:51 10° WSW 20:42:33 14° WSW 20:42:33 14° WSW visible
21 Apr 8.0 19:06:31 10° SW 19:09:58 25° S 19:10:52 23° SSE visible
21 Apr 9.0 20:46:12 10° WSW 20:47:10 15° SW 20:47:10 15° SW visible
22 Apr 8.0 19:10:42 10° SW 19:14:12 26° S 19:15:18 23° SSE visible
22 Apr 9.0 20:50:37 10° WSW 20:51:35 14° WSW 20:51:35 14° WSW visible
23 Apr 8.0 19:14:57 10° WSW 19:18:27 26° S 19:19:33 23° SSE visible
23 Apr 9.1 20:55:08 10° WSW 20:55:50 13° WSW 20:55:50 13° WSW visible
24 Apr 8.1 19:19:15 10° WSW 19:22:41 24° S 19:23:44 22° SSE visible
24 Apr 9.3 20:59:50 10° WSW 21:00:01 11° WSW 21:00:01 11° WSW visible
25 Apr 8.2 19:23:37 10° WSW 19:26:54 22° SSW 19:27:52 21° S visible
26 Apr 8.4 19:28:04 10° WSW 19:31:06 20° SSW 19:31:57 18° S visible
27 Apr 8.2 17:52:20 10° WSW 17:55:40 24° S 17:59:10 10° SE visible
27 Apr 8.6 19:32:37 10° WSW 19:35:17 16° SSW 19:36:01 16° SSW visible
28 Apr 8.3 17:56:39 10° WSW 17:59:54 23° S 18:03:18 10° SE visible
28 Apr 8.9 19:37:25 10° WSW 19:39:26 13° SSW 19:40:06 13° SSW visible
